Bokhtariyon

Tajikistan     37˚52′52″N   68˚43′50″E
temp.,
°C
wind,
m/s
gust,
m/s
humid.,
%
clouds,
%
prec.,
mm/h
press.,
hPa
HPBL,
m
28 november, sat
sat2823:00+10˚ese113699 0.0 102622
02:00+9˚sse2239100 0.0 103022
05:00+8˚se1240100 0.0 103541
08:00+7˚ene2458100 0.2 1041295
11:00+8˚ene226094 0.3 1042880
14:00+9˚ne235392 0.0 1040867
17:00+8˚n116046 0.0 103823
20:00+6˚n12680 0.0 103823
29 november, sun
sun2923:00+6˚n226850 0.0 103624
02:00+5˚n226170 0.0 103422
05:00+5˚nne225484 0.0 103322
08:00+5˚nne125142 0.0 103222
11:00+10˚ene113455 0.0 1031332
14:00+12˚s213099 0.0 1028351
17:00+10˚s1141100 0.0 102822
20:00+9˚se004499 0.0 102922
30 november, mon
mon3023:00+7˚n114372 0.0 102922
02:00+6˚n22370 0.0 102822
05:00+6˚nne23380 0.0 102722
08:00+6˚nne233517 0.0 102726
11:00+11˚ne122058 0.0 1025267
14:00+14˚sse1118100 0.0 1022316
17:00+11˚sw0027100 0.0 102122
20:00+10˚n1125100 0.0 102122
1 december, tue
tue123:00+11˚n2229100 0.0 102122
02:00+11˚nnw1129100 0.0 102122
05:00+11˚nne3429100 0.0 102247
08:00+11˚n585999 0.3 1023203
11:00+12˚n466299 1.2 1024358
14:00+15˚n225397 0.0 1023618
17:00+13˚nnw116353 0.0 102423
20:00+11˚nnw22710 0.0 102524
2 december, wed
wed223:00+10˚n23720 0.0 102636
02:00+10˚n23690 0.0 102629
05:00+9˚nne22673 0.0 102625
08:00+9˚nne22610 0.0 102624
11:00+15˚ene233918 0.0 1025353
14:00+20˚nne132929 0.0 1022678
17:00+16˚n223952 0.0 102224
20:00+14˚n334852 0.0 102232